[[{"header":{"parameterUnit":"m.s-1","parameterCategory":1,"la1":30.2991,"la2":30.254,"lo1":-89.0895,"lo2":-89.0444,"dy":0.0017,"dx":0.0017,"nx":28,"ny":28,"refTime":"2024-03-14T09:00:00:Z","depth":0,"parameterNumber":2,"parameterNumberName":"U-component_of_WINDS"},"data":[0,0,0,0,0,0,0,0,0,0,0,0,0,0,0,0,0,0,0,0,0,0,0,0,0,0,0,0,0,0,0,0,0,0,0,0,0,0,0,0,0,0,0,0,0,0,0,0,0,0,0,0,0,0,0,0,0,0,-0.9944,-0.9944,0,-0.9918,-0.9917,-0.9917,-0.9878,-0.9878,-0.9877,-0.9876,-0.9849,-0.9849,-0.9849,0,0,0,0,0,0,0,0,0,0,0,0,0,-0.9963,-0.9962,-0.9945,-0.9944,-0.9944,-0.9918,-0.9917,-0.9917,-0.9878,-0.9878,-0.9877,-0.9876,-0.9849,-0.9849,-0.9849,0,0,0,0,0,0,0,0,0,0,0,0,0,-0.9947,-0.9962,-0.9945,-0.9921,-0.9919,-0.9918,-0.9917,-0.9917,-0.9878,-0.9877,-0.9876,-0.9876,-0.9849,-0.9849,-0.9849,-0.9868,0,0,-0.9848,-0.9848,0,0,0,0,0,0,0,0,-0.9948,-0.9947,-0.9925,-0.9923,-0.992,-0.99,-0.9913,-0.99,-0.9879,-0.9894,-0.9876,-0.9875,-0.9867,-0.9865,-0.9862,-0.9866,-0.9865,-0.9848,-0.9848,-0.9848,-0.9848,0,0,0,0,0,0,0,-0.9949,-0.9947,-0.9934,-0.9925,-0.9922,-0.9912,-0.9909,-0.9911,-0.9886,-0.9893,-0.989,-0.9887,-0.9865,-0.9862,-0.9861,-0.9865,-0.9848,-0.9848,-0.9848,-0.9848,-0.9882,-0.9883,0,0,0,0,0,0,-0.9954,-0.9949,-0.9935,-0.9933,-0.9932,-0.9913,-0.9909,-0.9908,-0.9886,-0.9882,-0.9888,-0.9885,-0.9863,-0.9861,-0.986,-0.988,-0.9848,-0.9848,-0.9848,-0.9881,-0.9882,-0.9883,0,0,0,0,0,0,-0.9954,-0.9953,-0.9936,-0.994,-0.9937,-0.9914,-0.9912,-0.9908,-0.9905,-0.9883,-0.9878,-0.9889,-0.9862,-0.986,-0.9866,-0.9878,-0.9848,-0.9848,-0.988,-0.9881,-0.9883,-0.992,0,0,0,0,0,0,-0.9955,-0.9953,-0.996,-0.994,-0.9937,-0.9942,-0.9913,-0.9908,-0.9905,-0.9901,-0.9883,-0.9879,-0.9861,-0.9866,-0.9866,-0.9878,-0.9847,-0.9878,-0.988,-0.9882,-0.9918,-0.9923,-0.9927,0,0,0,0,0,-0.9956,-0.9972,-0.9961,-0.9959,-0.9945,-0.9943,-0.9941,-0.992,-0.9906,-0.9912,-0.9898,-0.988,-0.9877,-0.9867,-0.9866,-0.9878,-0.9878,-0.988,-0.9882,-0.9915,-0.9922,-0.9927,0,0,0,0,0,0,-0.9994,-0.9969,-0.9956,-0.9967,-0.9957,-0.9936,-0.9944,-0.9928,-0.9922,-0.9919,-0.9894,-0.989,-0.9898,-0.9889,-0.9878,-0.9895,-0.9875,-0.9877,-0.99,-0.9906,-0.9911,-0.9912,-0.9847,0,0,0,0,0,-1.0004,-1.0004,-0.9982,-0.9994,-0.9989,-0.9968,-0.9966,-0.9951,-0.994,-0.9936,-0.9922,-0.9912,-0.9908,-0.9907,-0.9903,-0.9917,-0.9911,-0.9924,-0.9929,-0.9933,-0.9935,-0.994,-0.9945,-0.9891,-0.9891,-0.9891,0,0,-1.0024,-1.001,-1.0012,-1.0001,-0.9992,-0.9992,-0.9965,-0.9966,-0.9966,-0.9936,-0.9939,-0.9929,-0.9916,-0.9926,-0.9929,-0.9918,-0.9949,-0.9936,-0.9939,-0.9939,-0.9943,-0.9948,-0.9953,-0.9892,-0.9892,-0.9892,0,0,-1.006,-1.0051,-1.0058,-1.005,-1.0036,-1.0021,-1.0023,-1.0005,-0.9996,-1.0,-0.9977,-0.9977,-0.9972,-0.9963,-0.9959,-0.9992,-0.9974,-0.9991,-1.0015,-1.0021,-1.0025,-1.0029,-1.0039,-1.0043,-0.9993,-0.9993,-0.9993,0,-1.0087,-1.0086,-1.0064,-1.0067,-1.0063,-1.0036,-1.0043,-1.0036,-1.0022,-1.0019,-1.0007,-1.0,-0.999,-0.9996,-1.0004,-1.0002,-1.0002,-0.9992,-1.0026,-1.003,-1.0033,-1.0042,-1.0046,-0.9995,-0.9995,-0.9995,-0.9995,0,-1.0119,-1.0119,-1.0127,-1.0113,-1.011,-1.0116,-1.0094,-1.0093,-1.0079,-1.0066,-1.0069,-1.0056,-1.0048,-1.0049,-1.0035,-1.0052,-1.0046,-1.0031,-1.0009,-1.004,-1.0049,-1.0052,-0.9998,-0.9998,-0.9997,-0.9997,0,0,-1.0178,-1.0152,-1.0155,-1.0148,-1.0131,-1.0131,-1.0135,-1.0127,-1.0126,-1.0118,-1.012,-1.0117,-1.0102,-1.0097,-1.0081,-1.0086,-1.0112,-1.007,-1.0069,-1.0077,-1.0129,-1.0139,-1.0144,-1.01,-1.0101,-1.0101,-1.0129,0,-1.0209,-1.0214,-1.0195,-1.0205,-1.0204,-1.0178,-1.0181,-1.0171,-1.0159,-1.0156,-1.0143,-1.014,-1.0122,-1.0118,-1.0122,-1.0108,-1.0121,-1.0106,-1.0101,-1.0101,-1.0103,-1.0149,-1.016,-1.0187,-1.0133,-1.0133,-1.0134,0,-1.0247,-1.024,-1.025,-1.0231,-1.023,-1.0234,-1.0224,-1.0223,-1.021,-1.0201,-1.0195,-1.0177,-1.0179,-1.016,-1.0162,-1.0152,-1.0149,-1.0141,-1.0142,-1.014,-1.0118,-1.0146,-1.0196,-1.0199,-1.0139,-1.0139,-1.0138,0,-1.0287,-1.028,-1.0285,-1.028,-1.0259,-1.0262,-1.0253,-1.024,-1.0237,-1.0229,-1.0226,-1.0219,-1.0215,-1.0209,-1.019,-1.0178,-1.0194,-1.0173,-1.0185,-1.0186,-1.0189,-1.0188,-1.0237,-1.0189,-1.0189,-1.0189,-1.0189,0,-1.0324,-1.033,-1.0302,-1.0305,-1.0311,-1.0289,-1.0296,-1.0285,-1.0274,-1.0273,-1.0251,-1.0251,-1.0227,-1.0224,-1.0209,-1.0212,-1.0211,-1.0203,-1.0198,-1.0204,-1.0205,-1.02,-1.0197,-1.019,-1.019,-1.019,-1.019,0,-1.0369,-1.0351,-1.0354,-1.0334,-1.0329,-1.0335,-1.0317,-1.0319,-1.0305,-1.0305,-1.0304,-1.0283,-1.0278,-1.0259,-1.025,-1.024,-1.0248,-1.024,-1.0252,-1.0248,-1.0261,-1.0259,-1.0307,-1.0311,-1.0263,-1.0263,-1.0264,0,-1.0393,-1.0397,-1.0378,-1.0376,-1.0368,-1.0366,-1.0362,-1.0341,-1.0337,-1.0324,-1.0326,-1.032,-1.0314,-1.0308,-1.0292,-1.0285,-1.0276,-1.0293,-1.0275,-1.028,-1.0274,-1.0274,-1.0273,-1.0297,-1.0297,-1.0298,-1.0298,0,-1.0437,-1.0427,-1.0423,-1.0415,-1.0411,-1.0403,-1.0395,-1.0395,-1.0371,-1.0368,-1.0363,-1.0359,-1.0349,-1.0343,-1.0333,-1.0324,-1.0307,-1.0304,-1.0306,-1.0311,-1.0317,-1.0313,-1.0261,-1.0303,-1.0303,-1.0302,-1.0302,-1.0302,-1.0471,-1.0473,-1.0459,-1.0455,-1.0446,-1.0439,-1.0439,-1.0425,-1.0421,-1.0412,-1.0399,-1.0396,-1.0383,-1.0368,-1.036,-1.0356,-1.0347,-1.035,-1.0351,-1.0352,-1.0354,-1.0319,-1.0355,-1.0355,-1.0354,-1.0354,-1.0354,0,-1.0512,-1.0502,-1.0498,-1.0487,-1.0483,-1.0468,-1.0457,-1.0455,-1.0452,-1.0442,-1.0436,-1.043,-1.0424,-1.0407,-1.0399,-1.04,-1.0391,-1.0398,-1.0397,-1.0395,-1.0364,-1.0362,-1.0405,-1.0405,-1.0405,-1.0405,-1.0405,-1.0405,-1.0533,-1.0535,-1.0525,-1.0523,-1.0513,-1.0509,-1.0504,-1.0497,-1.0488,-1.0483,-1.0478,-1.0467,-1.0453,-1.0444,-1.0437,-1.0433,-1.043,-1.0439,-1.0431,-1.0402,-1.0397,-1.0393,-1.0391,-1.0439,-1.0439,-1.0463,-1.0463,-1.0463]},{"header":{"parameterUnit":"m.s-1","parameterCategory":1,"la1":30.2991,"la2":30.254,"lo1":-89.0895,"lo2":-89.0444,"dy":0.0017,"dx":0.0017,"nx":28,"ny":28,"refTime":"2024-03-14T09:00:00:Z","depth":0,"parameterNumber":3,"parameterNumberName":"V-component_of_WINDS"},"data":[0,0,0,0,0,0,0,0,0,0,0,0,0,0,0,0,0,0,0,0,0,0,0,0,0,0,0,0,0,0,0,0,0,0,0,0,0,0,0,0,0,0,0,0,0,0,0,0,0,0,0,0,0,0,0,0,0,0,1.4263,1.4263,0,1.431,1.4311,1.4311,1.4358,1.4359,1.4359,1.436,1.4408,1.4408,1.4409,0,0,0,0,0,0,0,0,0,0,0,0,0,1.4213,1.4214,1.4263,1.4263,1.4264,1.431,1.4311,1.4312,1.4358,1.4359,1.436,1.436,1.4407,1.4408,1.4409,0,0,0,0,0,0,0,0,0,0,0,0,0,1.4245,1.4214,1.4263,1.4293,1.4296,1.431,1.4311,1.4312,1.4358,1.4359,1.436,1.4361,1.4407,1.4408,1.4409,1.4397,0,0,1.4412,1.4413,0,0,0,0,0,0,0,0,1.4243,1.4247,1.4288,1.4291,1.4294,1.4329,1.4311,1.434,1.4358,1.4334,1.436,1.4361,1.4381,1.4384,1.4391,1.4399,1.4402,1.4413,1.4413,1.4414,1.4414,0,0,0,0,0,0,0,1.4241,1.4245,1.4282,1.4288,1.4292,1.4304,1.431,1.4317,1.4352,1.4336,1.434,1.4345,1.4383,1.439,1.4392,1.4402,1.4413,1.4413,1.4414,1.4414,1.4407,1.4406,0,0,0,0,0,0,1.4234,1.4243,1.428,1.4283,1.4271,1.4304,1.4311,1.4317,1.4352,1.4358,1.4344,1.4347,1.4388,1.4391,1.4394,1.4385,1.4414,1.4415,1.4415,1.4407,1.4406,1.4406,0,0,0,0,0,0,1.4233,1.4237,1.4278,1.4264,1.427,1.4304,1.4311,1.4318,1.4325,1.4358,1.4364,1.4345,1.4388,1.4393,1.4397,1.4387,1.4415,1.4416,1.4408,1.4407,1.4406,1.4364,0,0,0,0,0,0,1.4231,1.4236,1.4232,1.4264,1.4271,1.428,1.4311,1.4318,1.4327,1.4331,1.436,1.4366,1.439,1.4395,1.4398,1.4389,1.4417,1.441,1.4408,1.4406,1.4367,1.4362,1.4358,0,0,0,0,0,1.4229,1.4217,1.4231,1.4235,1.4266,1.4279,1.4283,1.4311,1.4325,1.4322,1.4343,1.4365,1.4387,1.4395,1.4399,1.439,1.441,1.4408,1.4407,1.4369,1.4363,1.4358,0,0,0,0,0,0,1.4182,1.4222,1.4238,1.4236,1.4254,1.4287,1.4283,1.4303,1.4317,1.432,1.4354,1.436,1.4361,1.4376,1.4384,1.4382,1.4402,1.4401,1.4372,1.4367,1.4362,1.4359,1.4418,0,0,0,0,0,1.4172,1.4179,1.4213,1.4208,1.4216,1.4248,1.4255,1.4275,1.4295,1.4302,1.4324,1.4343,1.4355,1.4361,1.4373,1.4369,1.4377,1.4365,1.436,1.4356,1.4355,1.4357,1.4352,1.4399,1.4399,1.4399,0,0,1.415,1.4172,1.4175,1.4199,1.4216,1.4223,1.4254,1.426,1.4266,1.4303,1.4309,1.4326,1.4349,1.435,1.4351,1.4362,1.4344,1.4354,1.4351,1.4352,1.4354,1.435,1.4346,1.4398,1.4398,1.4399,0,0,1.4114,1.4131,1.413,1.4146,1.4171,1.4193,1.4192,1.4223,1.4236,1.4243,1.4271,1.4279,1.4298,1.4314,1.4325,1.4298,1.4319,1.4301,1.4277,1.4278,1.4274,1.4271,1.4264,1.4261,1.4299,1.4299,1.4299,0,1.4084,1.4097,1.4127,1.4132,1.4143,1.4178,1.4177,1.4192,1.4219,1.4226,1.4238,1.4264,1.4282,1.4288,1.4282,1.4288,1.429,1.4298,1.4273,1.427,1.4267,1.4261,1.4257,1.4297,1.4297,1.4297,1.4298,0,1.4059,1.4068,1.4064,1.4091,1.4101,1.4103,1.4135,1.4141,1.4161,1.4181,1.4189,1.4212,1.4231,1.4233,1.4252,1.4243,1.4249,1.4266,1.4288,1.426,1.4255,1.4252,1.4294,1.4295,1.4295,1.4296,0,0,1.3995,1.404,1.4038,1.4052,1.4083,1.409,1.4095,1.4114,1.412,1.4138,1.4144,1.416,1.4177,1.4189,1.421,1.4211,1.4191,1.4228,1.423,1.4222,1.4186,1.4174,1.417,1.4205,1.4205,1.4205,1.4184,0,1.3966,1.3977,1.4005,1.4007,1.4017,1.4051,1.4055,1.4075,1.4095,1.4106,1.4128,1.414,1.416,1.4168,1.417,1.4193,1.4185,1.4195,1.4212,1.4213,1.4207,1.4167,1.4154,1.4133,1.4182,1.4182,1.4181,0,1.3933,1.3951,1.3954,1.3987,1.3992,1.3996,1.4017,1.4027,1.4051,1.4066,1.408,1.4104,1.4112,1.4131,1.4144,1.415,1.4159,1.4172,1.4172,1.4175,1.4196,1.4171,1.4127,1.4125,1.4178,1.4178,1.4178,0,1.3888,1.3913,1.3919,1.3929,1.3967,1.3969,1.3985,1.401,1.4021,1.4039,1.4047,1.4066,1.4076,1.4091,1.412,1.413,1.413,1.4151,1.4143,1.4143,1.4142,1.4142,1.4101,1.4145,1.4145,1.4145,1.4145,0,1.3854,1.3855,1.39,1.3903,1.3907,1.394,1.3942,1.3961,1.3984,1.3993,1.4023,1.403,1.4067,1.4079,1.4102,1.411,1.4114,1.4127,1.4133,1.4125,1.4124,1.4132,1.4135,1.4145,1.4145,1.4145,1.4145,0,1.3805,1.3834,1.3843,1.3879,1.3889,1.389,1.3921,1.3926,1.3948,1.3959,1.3964,1.3998,1.4015,1.4045,1.4069,1.4085,1.4089,1.4099,1.4081,1.4085,1.4077,1.4078,1.4041,1.4039,1.4082,1.4082,1.4082,0,1.3782,1.3784,1.3821,1.3829,1.3844,1.3857,1.3869,1.3902,1.3912,1.3942,1.3944,1.3963,1.398,1.4005,1.4032,1.4052,1.4063,1.4049,1.4066,1.4059,1.4066,1.4066,1.4067,1.4045,1.4045,1.4044,1.4044,0,1.3738,1.3753,1.3769,1.379,1.3803,1.3821,1.3841,1.3846,1.3884,1.3895,1.3912,1.3926,1.3952,1.3971,1.3995,1.4012,1.4035,1.4038,1.4038,1.403,1.4021,1.4028,1.4072,1.4039,1.4039,1.404,1.404,1.404,1.3703,1.3707,1.3734,1.3751,1.377,1.3788,1.3796,1.382,1.3835,1.386,1.3878,1.3895,1.3921,1.3956,1.3972,1.3986,1.3997,1.3996,1.3996,1.3995,1.3993,1.4018,1.399,1.3991,1.3991,1.3991,1.3991,0,1.3662,1.3682,1.3697,1.3725,1.3739,1.3759,1.3783,1.3793,1.3807,1.383,1.3847,1.3868,1.3888,1.3918,1.394,1.3945,1.3957,1.395,1.3951,1.3955,1.3981,1.398,1.3941,1.3941,1.3941,1.3941,1.3941,1.3941,1.3643,1.3653,1.3671,1.3691,1.3711,1.3728,1.374,1.3758,1.3776,1.3799,1.3816,1.3835,1.3862,1.3886,1.3905,1.3914,1.3921,1.3912,1.3923,1.3948,1.3953,1.3957,1.3956,1.3913,1.3913,1.3896,1.3896,1.3896]}]]